User: anonymous   Login
Location: Caltech
(34.1382°N, 118.1253°W)
Time: 20:52:01
(UTC-07:00)
Language:

ERBS - Orbit

View from above orbital plane
View from above orbital plane
View from above satellite
View from above satellite

Ground track
Ground track

The orbit data is extracted from the following two-line orbital elements,

1 15354U 84108B   17268.62167211 +.00003771 +00000-0 +89393-4 0  9993
2 15354 057.0083 065.7937 0006458 320.9413 039.1176 15.44280820813446
Epoch (UTC): 25 September 2017 14:55:12
Eccentricity: 0.0006458
inclination: 57.0083°
perigee height: 429 km
apogee height: 438 km
right ascension of ascending node: 65.7937°
argument of perigee: 320.9413°
revolutions per day: 15.44280820
mean anomaly at epoch: 39.1176°
orbit number at epoch: 81344

The dashed part of the orbit path shows where the satellite is in the earth's shadow,  

DLR